Погода в Староконстантинове

Украина / Хмельницкая область     49°45′14″N   27°12′15″E
темп.,
°C
ветер,
м/с
пор.,
м/с
влажн.,
%
обл.,
%
осадки,
мм/ч
давл.,
гПа
погр.,
м
11 апреля, вс
вс1100:00+5ю49590 0.0 1025142
03:00+4ю49660 0.0 1026153
06:00+3ю37660 0.0 1026106
09:00+7ю58550 0.0 1027296
12:00+12ююв67390 0.0 10271095
15:00+14ююв56340 0.0 10261367
18:00+13ююв56390 0.0 10251325
21:00+7юв49580 0.0 1026160
12 апреля, пн
пн1200:00+5юв486327 0.0 1026129
03:00+4юв37654 0.0 1026113
06:00+3юв37670 0.0 102595
09:00+8юв46552 0.0 1024254
12:00+13ююв444067 0.0 10231020
15:00+15ююв34367 0.0 10201375
18:00+15ююв23385 0.0 10191357
21:00+10юв34565 0.0 102044
13 апреля, вт
вт1300:00+8ююв33615 0.0 102042
03:00+8ю22645 0.0 102013
06:00+7юв33665 0.0 101919
09:00+11ююв34565 0.0 1019226
12:00+16ююв344210 0.0 10181054
15:00+18ююв333753 0.0 10161481
18:00+17юв33395 0.0 10151731
21:00+12ююв335990 0.0 101640
14 апреля, ср
ср1400:00+10ююв4978100 0.0 1015189
03:00+10ююв4884100 0.0 1014237
06:00+9юв3784100 0.0 1013259
09:00+10юв4881100 0.0 1013413
12:00+13ююв685396 0.0 1012996
15:00+14ююв6850100 0.0 10121832
18:00+10ююв5772100 0.3 1012699
21:00+9юв5983100 1.4 1012923
15 апреля, чт
чт1500:00+8вюв51085100 0.1 1013627
03:00+7вюв4889100 0.3 1013470
06:00+7в3694100 0.6 1013365
09:00+7всв3593100 0.9 1014316
12:00+10в3679100 0.0 1014663
15:00+10св3582100 0.1 1013435
18:00+12ссв5872100 0.1 1012971
21:00+10ссв51087100 1.5 1012320